This demonstration page uses our WeatherBlox Daily Observations layout. Learn more.

Left ArrowRight Arrow

31.84235, -102.49876

Hourly Observations for May 7, 2021

Temp ( °F °C ) Dew Point ( °F °C ) Humidity (%) Winds ( mph kmh ) Pressure ( in mb ) Visibility ( mi km ) Precip ( " mm )
12:53 am 00:53 undefined 69 20.6 46 7.8 44 44 SSE 13 20 30.06 1018 10 16 0.00 0.00
1:53 am 01:53 Clear 69 20.6 45 7.2 42 42 SSE 14 22 30.05 1018 10 16 0.00 0.00
2:53 am 02:53 Clear 67 19.4 45 7.2 45 45 SSE 10 17 30.02 1017 10 16 0.00 0.00
3:53 am 03:53 Clear 65 18.3 45 7.2 49 49 SSE 9 15 30.01 1016 10 16 0.00 0.00
4:53 am 04:53 Clear 64 17.8 46 7.8 52 52 S 9 15 30.00 1016 10 16 0.00 0.00
5:53 am 05:53 Clear 64 17.8 47 8.3 54 54 S 9 15 30.01 1016 10 16 0.00 0.00
6:53 am 06:53 Clear 63 17.2 48 8.9 58 58 S 12 19 30.01 1016 10 16 0.00 0.00
7:53 am 07:53 Sunny 65 18.3 48 8.9 54 54 SSE 13 20 30.02 1017 10 16 0.00 0.00
8:53 am 08:53 Sunny 68 20 49 9.4 51 51 S 12 19 30.02 1017 10 16 0.00 0.00
9:53 am 09:53 Sunny 73 22.8 51 10.6 46 46 SSE 16 26 30.02 1017 10 16 0.00 0.00
10:53 am 10:53 Sunny 76 24.4 52 11.1 43 43 S 18 30 30.01 1016 10 16 0.00 0.00
11:53 am 11:53 Sunny 80 26.7 52 11.1 38 38 S 17 28 30.00 1016 10 16 0.00 0.00
12:53 pm 12:53 Sunny 84 28.9 51 10.6 32 32 S 16 26 29.97 1015 10 16 0.00 0.00
1:53 pm 13:53 Sunny 85 29.4 50 10 30 30 S 23 37 29.93 1014 10 16 0.00 0.00
2:53 pm 14:53 undefined 87 30.6 49 9.4 27 27 S 18 30 29.90 1013 10 16 0.00 0.00
3:53 pm 15:53 Sunny 87 30.6 46 7.8 24 24 S 24 39 29.87 1012 10 16 0.00 0.00
4:53 pm 16:53 Sunny 88 31.1 44 6.7 22 22 SSE 24 39 29.82 1010 10 16 0.00 0.00
5:53 pm 17:53 undefined 88 31.1 41 5 19 19 S 24 39 29.77 1008 10 16 0.00 0.00
7:53 pm 19:53 Sunny 82 27.8 41 5 23 23 S 17 28 29.78 1008 10 16 0.00 0.00
8:53 pm 20:53 Clear 79 26.1 41 5 26 26 S 18 30 29.80 1009 10 16 0.00 0.00
9:53 pm 21:53 Mostly Cloudy with Light Rain 79 26.1 40 4.4 25 25 SSW 32 52 29.86 1011 10 16 0.00 0.00
10:53 pm 22:53 Clear 78 25.6 39 3.9 25 25 S 23 37 29.80 1009 10 16 0.00 0.00
11:53 pm 23:53 undefined 77 25 39 3.9 26 26 S 21 33 29.80 1009 10 16 0.00 0.00

Powered by AerisWeather